Location: La Bastide
(43.1661°N, 1.2755°E)
Time: 16:51:57
(UTC+00:00)

Okean 1 - Pass Details

Date: 13 December 2025
Orbit: 465 x 483 km, 82.5° (Epoch: 22 January)

Event Time Altitude Azimuth Distance (km) Brightness Sun altitude
Rises 17:31:37 0° 164° (SSE) 2,526 6.8 -12.6°
Reaches altitude 10° 17:33:52 10° 153° (SSE) 1,648 5.7 -13.0°
Maximum altitude 17:37:02 29° 91° (E) 896 3.9 -13.5°
Enters shadow 17:38:14 24° 57° (ENE) 1,038 4.1 -13.7°
